Cedar Rapids, IA

7:51 PM CST on November 11, 2019 (GMT -0600)
The Eastern Iowa Airport

Weather History for KCID - September, 2019

Change the Weather History Date:

Wednesday, September 11, 2019

  Actual Average Record
Temperature  
Mean Temperature 79 °F 65 °F  
Max Temperature 86 °F 76 °F 96 °F (1911)
Min Temperature 71 °F 53 °F 37 °F (1917)
Degree Days  
Heating Degree Days 0 3  
Month to date heating degree days 7 23  
Since 1 July heating degree days 15 42  
Cooling Degree Days 14 3  
Month to date cooling degree days 44 41  
Year to date cooling degree days 696 709  
Growing Degree Days 28 (Base 50)    
Moisture  
Dew Point 72 °F    
Average Humidity 81    
Maximum Humidity 100    
Minimum Humidity 61    
Precipitation  
Precipitation 0.00 in 0.11 in 1.56 in (1963)
Month to date precipitation 1.63 1.26  
Year to date precipitation 29.48 26.56  
Sea Level Pressure  
Sea Level Pressure 30.01 in    
Wind  
Wind Speed 9 mph (SSW)    
Max Wind Speed 21 mph    
Max Gust Speed 28 mph    
Visibility 8 miles    
Events      
T = Trace of Precipitation, MM = Missing Value Source: NWS Daily Summary

Daily Weather History Graph

Daily Weather History Graph

Search for Another Location

Airport or City:

Astronomy

Sep. 11, 2019 Rise Set
Actual Time 6:42 AM CDT 7:23 PM CDT
Civil Twilight 6:14 AM CDT 7:51 PM CDT
Nautical Twilight 5:41 AM CDT 8:24 PM CDT
Astronomical Twilight 5:06 AM CDT 8:59 PM CDT
Moon 6:38 PM CDT (9/11) 4:02 AM CDT (9/11)
Length of Visible Light 13h 37m
Length of Day
12h 40m
Waxing Gibbous, 95% of the Moon is Illuminated
Sep 11
Waxing Gibbous
Sep 13
Full
Sep 21
Last Quarter
Sep 28
New
Oct 5
First Quarter

Hourly Weather History & Observations

Time (CDT) Temp. Heat Index Dew Point Humidity Pressure Visibility Wind Dir Wind Speed Gust Speed Precip Events Conditions
12:52 AM 71.1 °F - 71.1 °F 100% 30.05 in 8.0 mi SE 5.8 mph - N/A   Partly Cloudy
1:52 AM 72.0 °F - 71.1 °F 97% 30.04 in 6.0 mi South 6.9 mph - N/A   Clear
2:52 AM 72.0 °F - 71.1 °F 97% 30.03 in 7.0 mi South 6.9 mph - N/A   Clear
3:52 AM 72.0 °F - 71.1 °F 97% 30.02 in 6.0 mi South 6.9 mph - N/A   Partly Cloudy
4:52 AM 72.0 °F - 71.1 °F 97% 30.02 in 7.0 mi South 8.1 mph - N/A   Clear
5:52 AM 72.0 °F - 71.1 °F 97% 30.01 in 7.0 mi South 8.1 mph - N/A   Clear
7:52 AM 73.0 °F - 71.1 °F 93% 30.04 in 6.0 mi South 8.1 mph - N/A   Clear
8:52 AM 75.0 °F - 71.1 °F 87% 30.04 in 8.0 mi South 10.4 mph - N/A   Mostly Cloudy
9:52 AM 75.9 °F - 71.1 °F 85% 30.06 in 8.0 mi SSW 9.2 mph - N/A   Mostly Cloudy
10:52 AM 78.1 °F - 71.1 °F 79% 30.06 in 9.0 mi SW 11.5 mph 24.2 mph N/A   Scattered Clouds
11:52 AM 80.1 °F 84.2 °F 73.0 °F 79% 30.06 in 9.0 mi SW 12.7 mph - N/A   Mostly Cloudy
12:52 PM 81.0 °F 84.9 °F 71.1 °F 72% 30.06 in 10.0 mi WSW 12.7 mph - N/A   Scattered Clouds
1:52 PM 80.1 °F 83.8 °F 72.0 °F 76% 29.99 in 9.0 mi SSW 10.4 mph - N/A   Partly Cloudy
2:52 PM 84.0 °F 89.6 °F 72.0 °F 67% 29.96 in 10.0 mi SSW 16.1 mph 25.3 mph N/A   Clear
4:52 PM 86.0 °F 92.2 °F 72.0 °F 63% 29.96 in 10.0 mi SSW 13.8 mph - N/A   Clear
5:52 PM 84.9 °F 90.7 °F 72.0 °F 65% 29.95 in 10.0 mi SSW 11.5 mph - N/A   Clear
6:52 PM 81.0 °F 85.8 °F 73.0 °F 77% 29.96 in 9.0 mi South 8.1 mph - N/A   Clear
7:52 PM 77.0 °F - 73.0 °F 88% 29.96 in 9.0 mi Calm Calm - N/A   Scattered Clouds
8:52 PM 73.9 °F - 72.0 °F 93% 29.98 in 8.0 mi Calm Calm - N/A   Mostly Cloudy
9:52 PM 75.0 °F - 71.1 °F 87% 29.98 in 9.0 mi Calm Calm - N/A   Clear
10:52 PM 72.0 °F - 70.0 °F 93% 29.97 in 8.0 mi South 5.8 mph - N/A   Clear